Frankfort, MI

4:11 AM EST on December 11, 2019 (GMT -0500)
Frankfort

Weather History for KFKS - October, 2019

Change the Weather History Date:

Saturday, October 26, 2019

  Actual Average (WUND) Record (WUND)
Temperature  
Mean Temperature 42 °F -  
Max Temperature 54 °F - - (-1)
Min Temperature 31 °F - - (-1)
Degree Days  
Heating Degree Days 22    
Moisture  
Dew Point 29 °F    
Average Humidity 61    
Maximum Humidity 86    
Minimum Humidity 25    
Precipitation  
Precipitation 0.00 in - - ()
Sea Level Pressure  
Sea Level Pressure 30.01 in    
Wind  
Wind Speed 3 mph (ESE)    
Max Wind Speed 14 mph    
Max Gust Speed 18 mph    
Visibility 10 miles    
Events Rain    
Averages and records for this station are not official NWS values.
T = Trace of Precipitation, MM = Missing Value Source: NWS Daily Summary

Daily Weather History Graph

Daily Weather History Graph

Search for Another Location

Airport or City:

Astronomy

Oct. 26, 2019 Rise Set
Actual Time 8:14 AM EDT 6:42 PM EDT
Civil Twilight 7:44 AM EDT 7:12 PM EDT
Nautical Twilight 7:10 AM EDT 7:46 PM EDT
Astronomical Twilight 6:36 AM EDT 8:20 PM EDT
Moon 6:01 AM EDT (10/26) 6:24 PM EDT (10/26)
Length of Visible Light 11h 28m
Length of Day
10h 28m
Waning Crescent, 3% of the Moon is Illuminated
Oct 26
Waning Crescent
Oct 27
New
Nov 4
First Quarter
Nov 12
Full
Nov 19
Last Quarter

Hourly Weather History & Observations

Time (EDT) Temp. Windchill Dew Point Humidity Pressure Visibility Wind Dir Wind Speed Gust Speed Precip Events Conditions
12:15 AM 36.3 °F 32.5 °F 29.1 °F 75% 30.19 in 10.0 mi SE 4.6 mph - N/A   Clear
12:16 AM 36.1 °F 32.3 °F 29.3 °F 76% 30.19 in 10.0 mi SE 4.6 mph - N/A   Clear
12:35 AM 35.6 °F - 29.5 °F 78% 30.19 in 10.0 mi Calm Calm - N/A   Clear
12:36 AM 35.6 °F - 29.5 °F 78% 30.19 in 10.0 mi Calm Calm - N/A   Clear
12:59 AM 34.3 °F - 29.1 °F 81% 30.19 in 10.0 mi Calm Calm - N/A   Clear
1:16 AM 32.4 °F - 27.5 °F 82% 30.19 in 10.0 mi Calm Calm - N/A   Clear
1:35 AM 33.3 °F - 28.6 °F 83% 30.19 in 10.0 mi Calm Calm - N/A   Clear
1:36 AM 32.9 °F - 28.2 °F 83% 30.19 in 10.0 mi Calm Calm - N/A   Clear
1:55 AM 33.1 °F - 28.8 °F 84% 30.19 in 10.0 mi Calm Calm - N/A   Clear
1:56 AM 33.1 °F - 28.6 °F 84% 30.19 in 10.0 mi Calm Calm - N/A   Clear
2:15 AM 33.8 °F - 29.5 °F 84% 30.19 in 10.0 mi Calm Calm - N/A   Clear
2:38 AM 32.0 °F - 27.0 °F 82% 30.18 in 10.0 mi Calm Calm - N/A   Clear
2:56 AM 32.2 °F - 27.9 °F 84% 30.18 in 10.0 mi Calm Calm - N/A   Clear
3:15 AM 31.8 °F - 26.8 °F 82% 30.18 in 10.0 mi Calm Calm - N/A   Clear
3:16 AM 31.8 °F - 27.0 °F 82% 30.18 in 10.0 mi Calm Calm - N/A   Clear
3:35 AM 32.4 °F - 28.0 °F 84% 30.18 in 10.0 mi Calm Calm - N/A   Clear
3:59 AM 34.3 °F - 30.0 °F 84% 30.18 in 10.0 mi Calm Calm - N/A   Clear
4:17 AM 32.9 °F - 29.1 °F 86% 30.17 in 10.0 mi Calm Calm - N/A   Clear
4:35 AM 32.2 °F - 28.2 °F 85% 30.17 in 10.0 mi Calm Calm - N/A   Clear
4:36 AM 32.4 °F - 28.6 °F 86% 30.17 in 10.0 mi Calm Calm - N/A   Clear
5:15 AM 32.0 °F - 27.0 °F 82% 30.16 in 10.0 mi Calm Calm - N/A   Clear
5:38 AM 31.8 °F - 27.3 °F 83% 30.17 in 10.0 mi Calm Calm - N/A   Clear
5:56 AM 33.6 °F - 29.3 °F 84% 30.17 in 10.0 mi Calm Calm - N/A   Clear
6:15 AM 34.3 °F - 30.2 °F 85% 30.16 in 10.0 mi Calm Calm - N/A   Clear
6:35 AM 32.5 °F - 28.2 °F 84% 30.17 in 10.0 mi Calm Calm - N/A   Clear
6:59 AM 32.9 °F - 28.9 °F 85% 30.16 in 10.0 mi Calm Calm - N/A   Clear
7:17 AM 32.2 °F - 27.7 °F 83% 30.16 in 10.0 mi Calm Calm - N/A   Clear
7:35 AM 34.0 °F - 30.0 °F 85% 30.15 in 10.0 mi Calm Calm - N/A   Clear
7:36 AM 34.2 °F - 30.2 °F 85% 30.15 in 10.0 mi Calm Calm - N/A   Clear
7:55 AM 31.8 °F - 27.1 °F 83% 30.15 in 10.0 mi Calm Calm - N/A   Clear
8:15 AM 32.0 °F - 27.5 °F 83% 30.13 in 10.0 mi Calm Calm - N/A   Clear
8:38 AM 32.0 °F - 27.3 °F 83% 30.13 in 10.0 mi Calm Calm - N/A   Clear
8:56 AM 32.0 °F 28.7 °F 27.5 °F 83% 30.13 in 10.0 mi ESE 3.5 mph - N/A   Clear
9:15 AM 36.5 °F 32.7 °F 30.2 °F 78% 30.13 in 10.0 mi SE 4.6 mph - N/A   Clear
9:35 AM 38.5 °F 36.1 °F 30.6 °F 73% 30.13 in 10.0 mi ESE 3.5 mph - N/A   Clear
9:59 AM 39.2 °F 35.0 °F 31.1 °F 73% 30.14 in 10.0 mi SE 5.8 mph - N/A   Clear
10:17 AM 41.0 °F 37.1 °F 31.6 °F 69% 30.13 in 10.0 mi SE 5.8 mph - N/A   Clear
10:35 AM 42.8 °F 39.3 °F 32.0 °F 66% 30.13 in 10.0 mi SE 5.8 mph - N/A   Clear
10:36 AM 43.0 °F 39.5 °F 32.0 °F 65% 30.13 in 10.0 mi SE 5.8 mph - N/A   Clear
10:55 AM 45.1 °F 42.8 °F 32.5 °F 61% 30.11 in 10.0 mi SE 4.6 mph - N/A   Clear
11:15 AM 46.8 °F - 32.5 °F 58% 30.09 in 10.0 mi SSE 6.9 mph - N/A   Clear
11:38 AM 50.0 °F - 32.7 °F 52% 30.09 in 10.0 mi South 8.1 mph - N/A   Clear
11:55 AM 50.0 °F - 31.5 °F 49% 30.08 in 10.0 mi SE 10.4 mph - N/A   Clear
12:15 PM 51.1 °F - 27.9 °F 41% 30.07 in 10.0 mi SSE 13.8 mph - N/A   Clear
12:16 PM 51.1 °F - 27.7 °F 40% 30.07 in 10.0 mi SSE 12.7 mph 16.1 mph N/A   Clear
12:35 PM 50.5 °F - 29.5 °F 44% 30.06 in 10.0 mi SE 9.2 mph - N/A   Clear
12:59 PM 51.4 °F - 28.0 °F 40% 30.05 in 10.0 mi SSE 6.9 mph - N/A   Clear
1:17 PM 52.2 °F - 26.1 °F 36% 30.03 in 10.0 mi SSE 9.2 mph - N/A   Clear
1:35 PM 53.2 °F - 23.5 °F 32% 30.02 in 10.0 mi SSE 10.4 mph - N/A   Clear
1:36 PM 53.2 °F - 23.5 °F 32% 30.01 in 10.0 mi SSE 9.2 mph - N/A   Clear
1:55 PM 52.9 °F - 24.1 °F 33% 30.00 in 10.0 mi SE 9.2 mph - N/A   Clear
1:56 PM 52.7 °F - 24.4 °F 33% 30.00 in 10.0 mi SE 8.1 mph - N/A   Clear
2:15 PM 52.7 °F - 25.3 °F 35% 29.99 in 10.0 mi SSE 10.4 mph - N/A   Clear
2:38 PM 53.1 °F - 26.2 °F 35% 29.99 in 10.0 mi SSE 9.2 mph - N/A   Clear
2:56 PM 53.8 °F - 27.1 °F 36% 29.99 in 10.0 mi SSE 4.6 mph - N/A   Clear
3:15 PM 53.6 °F - 22.6 °F 30% 29.98 in 10.0 mi SE 8.1 mph - N/A   Clear
3:16 PM 53.6 °F - 22.1 °F 29% 29.97 in 10.0 mi ESE 8.1 mph - N/A   Clear
3:35 PM 53.8 °F - 21.9 °F 29% 29.96 in 10.0 mi SE 9.2 mph - N/A   Clear
3:59 PM 54.1 °F - 19.0 °F 25% 29.95 in 10.0 mi SE 6.9 mph - N/A   Clear
4:17 PM 54.0 °F - 19.6 °F 26% 29.95 in 10.0 mi SE 8.1 mph - N/A   Clear
4:35 PM 53.6 °F - 20.1 °F 27% 29.95 in 10.0 mi SE 6.9 mph - N/A   Clear
4:36 PM 53.6 °F - 20.3 °F 27% 29.95 in 10.0 mi SE 6.9 mph - N/A   Clear
4:55 PM 52.9 °F - 21.2 °F 29% 29.93 in 10.0 mi SSE 6.9 mph - N/A   Clear
4:56 PM 52.9 °F - 21.4 °F 29% 29.93 in 10.0 mi SE 5.8 mph - N/A   Clear
5:15 PM 52.5 °F - 23.5 °F 32% 29.92 in 10.0 mi East 3.5 mph - N/A   Clear
5:20 PM 52.0 °F - 24.6 °F 35% 29.92 in 10.0 mi ESE 5.8 mph - N/A   Clear
5:38 PM 51.4 °F - 25.9 °F 37% 29.90 in 10.0 mi East 3.5 mph - N/A   Clear
5:56 PM 51.1 °F - 26.6 °F 39% 29.90 in 10.0 mi East 3.5 mph - N/A   Clear
6:15 PM 50.5 °F - 27.5 °F 41% 29.89 in 10.0 mi East 3.5 mph - N/A   Clear
6:16 PM 50.5 °F - 27.7 °F 41% 29.89 in 10.0 mi East 3.5 mph - N/A   Clear
6:35 PM 50.0 °F - 28.9 °F 44% 29.89 in 10.0 mi East 4.6 mph - N/A   Clear
6:36 PM 50.0 °F - 28.9 °F 44% 29.88 in 10.0 mi East 5.8 mph - N/A   Clear
6:59 PM 49.6 °F - 30.0 °F 47% 29.88 in 10.0 mi East 4.6 mph - N/A   Clear
7:17 PM 49.3 °F - 30.9 °F 49% 29.87 in 10.0 mi Calm Calm - N/A   Clear
7:35 PM 49.3 °F - 31.5 °F 50% 29.85 in 10.0 mi East 6.9 mph - N/A   Clear
7:36 PM 49.3 °F - 31.5 °F 50% 29.85 in 10.0 mi East 6.9 mph - N/A   Clear
7:55 PM 49.1 °F - 31.8 °F 51% 29.84 in 10.0 mi East 3.5 mph - N/A   Clear
7:56 PM 49.1 °F - 31.8 °F 51% 29.84 in 10.0 mi East 4.6 mph - N/A   Clear
8:15 PM 49.1 °F - 32.0 °F 52% 29.83 in 10.0 mi East 6.9 mph - N/A   Clear
8:20 PM 49.1 °F - 32.0 °F 52% 29.83 in 10.0 mi East 4.6 mph - N/A   Clear
8:38 PM 49.1 °F - 32.0 °F 52% 29.82 in 10.0 mi East 4.6 mph - N/A   Clear
8:56 PM 49.1 °F - 32.0 °F 52% 29.81 in 10.0 mi East 3.5 mph - N/A   Mostly Cloudy
9:15 PM 49.1 °F - 32.7 °F 53% 29.80 in 10.0 mi East 5.8 mph - N/A   Light Drizzle
9:16 PM 48.9 °F - 32.9 °F 54% 29.79 in 10.0 mi East 6.9 mph - N/A   Light Drizzle
9:35 PM 47.5 °F - 35.6 °F 63% 29.78 in 10.0 mi East 3.5 mph - N/A Rain Rain
9:36 PM 47.3 °F - 35.8 °F 64% 29.78 in 7.0 mi East 4.6 mph - N/A Rain Rain
9:59 PM 45.9 °F 44.6 °F 37.6 °F 73% 29.76 in 10.0 mi East 3.5 mph - N/A Rain Light Rain
10:17 PM 45.7 °F 42.7 °F 38.1 °F 75% 29.74 in 10.0 mi East 5.8 mph - N/A Rain Light Rain
10:35 PM 45.5 °F 40.8 °F 38.5 °F 76% 29.73 in 7.0 mi East 9.2 mph - N/A Rain Light Rain
10:55 PM 45.5 °F 40.8 °F 39.2 °F 79% 29.71 in 7.0 mi ENE 9.2 mph - N/A Rain Rain
11:15 PM 45.5 °F 41.3 °F 39.6 °F 80% 29.70 in 3.0 mi ENE 8.1 mph - N/A Rain Rain
11:19 PM 45.5 °F 42.5 °F 39.7 °F 80% 29.69 in 4.0 mi ENE 5.8 mph - N/A Rain Rain
11:38 PM 45.7 °F 40.6 °F 40.3 °F 81% 29.67 in 4.0 mi ENE 10.4 mph 18.4 mph N/A Rain Rain
11:56 PM 45.9 °F 40.8 °F 40.6 °F 82% 29.65 in 5.0 mi ENE 10.4 mph 16.1 mph N/A Rain Rain